Saison 2024 · Manche 1

Bahrain Grand Prix

2024-03-02 · Bahrain International Circuit · Bahrain · Bahrain Grand Prix · 57Lap · 308.238km
Red Bull 1:31:44.742
Victoire par équipe 44pt P1 · P2 1-2
Red Bull +22.457
Ferrari +25.110
Meilleur tour
1:32.608 · L39
Abandon
0
tous classés · 20 partants
Météo
18°/24°
moy. air/piste · sec · humidité 49%
Voiture de sécurité
0
Déploiements SC/VSC
Utilisation des pneus Direction de course
Storylines · This Grand Prix & circuit
Plus de victoires à ce GP
Lewis Hamilton actif 5 victoires
Sebastian Vettel 4 victoires
Conversion pole-victoire 11/22 50%
Most SC/VSC · all-time P31
Most lead changes · all-time P25
Circuit Info
57Lap 308.238km 22 courses held (2004–) Record du tour 55.404 · George Russell (2020)
Records Watch · Active drivers ranked at this Grand Prix
P1 Lewis Hamilton 5 victoires · GP #1
P3 Fernando Alonso 3 victoires · → Sebastian Vettel -1
P4 Max Verstappen 2 victoires · → Fernando Alonso -1
P1 Lewis Hamilton 3 · GP #1
P1 Max Verstappen 3 · GP #1
P1 Fernando Alonso 18 départs · GP #1
P1 Lewis Hamilton 18 départs · GP #1
P4 Nico Hülkenberg 13 départs · → Kimi Räikkönen -3
Course Trace · position by lap
départ arrêté SG 1 6 11 16 21 26 31 36 41 46 51 56 Verstappen · arrêt aux stands L17 Verstappen · arrêt aux stands L37 Verstappen VER Verstappen VER Pérez · arrêt aux stands L12 Pérez · arrêt aux stands L36 Pérez PER Pérez PER Sainz · arrêt aux stands L14 Sainz · arrêt aux stands L35 Sainz SAI Sainz SAI Leclerc · arrêt aux stands L11 Leclerc · arrêt aux stands L34 Leclerc LEC Leclerc LEC Russell · arrêt aux stands L11 Russell · arrêt aux stands L31 Russell RUS Russell RUS Norris · arrêt aux stands L13 Norris · arrêt aux stands L33 Norris NOR Norris NOR Hamilton · arrêt aux stands L12 Hamilton · arrêt aux stands L33 Hamilton HAM Hamilton HAM Piastri · arrêt aux stands L12 Piastri · arrêt aux stands L34 Piastri PIA Piastri PIA Alonso · arrêt aux stands L15 Alonso · arrêt aux stands L41 Alonso ALO Alonso ALO Stroll · arrêt aux stands L9 Stroll · arrêt aux stands L27 Stroll STR Stroll STR Zhou · arrêt aux stands L9 Zhou · arrêt aux stands L28 Zhou ZHO Zhou ZHO Magnussen · arrêt aux stands L11 Magnussen · arrêt aux stands L32 Magnussen MAG Magnussen MAG Ricciardo · arrêt aux stands L13 Ricciardo · arrêt aux stands L35 Ricciardo RIC Ricciardo RIC Tsunoda · arrêt aux stands L14 Tsunoda · arrêt aux stands L34 Tsunoda TSU Tsunoda TSU Albon · arrêt aux stands L15 Albon · arrêt aux stands L36 Albon ALB Albon ALB Hülkenberg · arrêt aux stands L1 Hülkenberg · arrêt aux stands L20 Hülkenberg · arrêt aux stands L41 Hülkenberg HUL Hülkenberg HUL Ocon · arrêt aux stands L10 Ocon · arrêt aux stands L30 Ocon OCO Ocon OCO Gasly · arrêt aux stands L12 Gasly · arrêt aux stands L31 Gasly · arrêt aux stands L43 Gasly GAS Gasly GAS Bottas · arrêt aux stands L12 Bottas · arrêt aux stands L30 Bottas BOT Bottas BOT Sargeant · arrêt aux stands L10 Sargeant · arrêt aux stands L28 Sargeant · arrêt aux stands L40 Sargeant SAR Sargeant SAR
arrêt aux stands pénalité purgée aux stands SG Grille de départ voiture arrêtée position à chaque tour (depuis 1996)
PosPiloteTeamGrilleTourTemps / StatutPoints
1 1 Max Verstappen FL Red Bull 1 57 1:31:44.742 26
2 11 Sergio Pérez Red Bull 5 57 +22.457 18
3 55 Carlos Sainz Ferrari 4 57 +25.110 15
4 16 Charles Leclerc Ferrari 2 57 +39.669 12
5 63 George Russell Mercedes 3 57 +46.788 10
6 4 Lando Norris McLaren 7 57 +48.458 8
7 44 Lewis Hamilton Mercedes 9 57 +50.324 6
8 81 Oscar Piastri McLaren 8 57 +56.082 4
9 14 Fernando Alonso Aston Martin 6 57 +1:14.887 2
10 18 Lance Stroll Aston Martin 12 57 +1:33.216 1
11 24 Guanyu Zhou Sauber 17 56 +6.759
12 20 Kevin Magnussen Haas F1 Team 15 56 +8.316
13 3 Daniel Ricciardo RB F1 Team 14 56 +8.958
14 22 Yuki Tsunoda RB F1 Team 11 56 +9.482
15 23 Alexander Albon Williams 13 56 +11.886
16 27 Nico Hülkenberg Haas F1 Team 10 56 +17.632
17 31 Esteban Ocon Alpine F1 Team 19 56 +31.450
18 10 Pierre Gasly Alpine F1 Team 20 56 +32.417
19 77 Valtteri Bottas Sauber 16 56 +1:23.230
20 2 Logan Sargeant Williams 18 55 +20.795
PosPiloteTeamQ1Q2Q3Écart à la pole
1 1 Max Verstappen Red Bull 1:30.031 1:29.374 1:29.179 +0.014 Q3
2 16 Charles Leclerc Ferrari 1:30.243 1:29.165 1:29.407 POLE Q2
3 63 George Russell Mercedes 1:30.350 1:29.922 1:29.485 +0.320 Q3
4 55 Carlos Sainz Ferrari 1:29.909 1:29.573 1:29.507 +0.342 Q3
5 11 Sergio Pérez Red Bull 1:30.221 1:29.932 1:29.537 +0.372 Q3
6 14 Fernando Alonso Aston Martin 1:30.179 1:29.801 1:29.542 +0.377 Q3
7 4 Lando Norris McLaren 1:30.143 1:29.941 1:29.614 +0.449 Q3
8 81 Oscar Piastri McLaren 1:30.531 1:30.122 1:29.683 +0.518 Q3
9 44 Lewis Hamilton Mercedes 1:30.451 1:29.718 1:29.710 +0.545 Q3
10 27 Nico Hülkenberg Haas F1 Team 1:30.566 1:29.851 1:30.502 +0.686 Q2
11 22 Yuki Tsunoda RB F1 Team 1:30.481 1:30.129 +0.964 Q2
12 18 Lance Stroll Aston Martin 1:29.965 1:30.200 +0.800 Q1
13 23 Alexander Albon Williams 1:30.397 1:30.221 +1.056 Q2
14 3 Daniel Ricciardo RB F1 Team 1:30.562 1:30.278 +1.113 Q2
15 20 Kevin Magnussen Haas F1 Team 1:30.646 1:30.529 +1.364 Q2
16 77 Valtteri Bottas Sauber 1:30.756 +1.591 Q1
17 24 Guanyu Zhou Sauber 1:30.757 +1.592 Q1
18 2 Logan Sargeant Williams 1:30.770 +1.605 Q1
19 31 Esteban Ocon Alpine F1 Team 1:30.793 +1.628 Q1
20 10 Pierre Gasly Alpine F1 Team 1:30.948 +1.783 Q1
Grille de départ
Officielle
Final grid as classé, including any depuis la voie des stands départs. Source: Jolpica-F1. The arrow compares the grid slot with the les qualifications classification; hover a drop to see the stewards document behind it.
Aucune donnée pour cette séance.
PosPiloteMeilleur tourÉcartTours
1 3 Daniel Ricciardo 1:32.869 23
2 4 Lando Norris 1:32.901 +0.032 25
3 81 Oscar Piastri 1:33.113 +0.244 25
4 22 Yuki Tsunoda 1:33.183 +0.314 24
5 14 Fernando Alonso 1:33.193 +0.324 20
6 1 Max Verstappen 1:33.238 +0.369 21
7 63 George Russell 1:33.251 +0.382 25
8 16 Charles Leclerc 1:33.268 +0.399 24
9 44 Lewis Hamilton 1:33.302 +0.433 22
10 77 Valtteri Bottas 1:33.354 +0.485 21
11 55 Carlos Sainz 1:33.385 +0.516 26
12 11 Sergio Pérez 1:33.413 +0.544 24
13 23 Alexander Albon 1:33.583 +0.714 17
14 18 Lance Stroll 1:33.868 +0.999 20
15 24 Guanyu Zhou 1:33.923 +1.054 16
16 2 Logan Sargeant 1:34.213 +1.344 19
17 31 Esteban Ocon 1:34.807 +1.938 21
18 10 Pierre Gasly 1:35.144 +2.275 24
19 20 Kevin Magnussen 1:37.477 +4.608 25
20 27 Nico Hülkenberg 1:37.938 +5.069 27
Classified by best lap · source OpenF1 (2023+)
PosPiloteMeilleur tourÉcartTours
1 44 Lewis Hamilton 1:30.374 25
2 63 George Russell 1:30.580 +0.206 23
3 14 Fernando Alonso 1:30.660 +0.286 22
4 55 Carlos Sainz 1:30.769 +0.395 25
5 81 Oscar Piastri 1:30.784 +0.410 27
6 1 Max Verstappen 1:30.851 +0.477 25
7 27 Nico Hülkenberg 1:30.884 +0.510 23
8 18 Lance Stroll 1:30.891 +0.517 26
9 16 Charles Leclerc 1:31.113 +0.739 26
10 11 Sergio Pérez 1:31.115 +0.741 26
11 23 Alexander Albon 1:31.333 +0.959 26
12 3 Daniel Ricciardo 1:31.516 +1.142 26
13 2 Logan Sargeant 1:31.715 +1.341 27
14 20 Kevin Magnussen 1:31.764 +1.390 27
15 22 Yuki Tsunoda 1:31.881 +1.507 29
16 10 Pierre Gasly 1:31.951 +1.577 25
17 77 Valtteri Bottas 1:32.001 +1.627 24
18 31 Esteban Ocon 1:32.027 +1.653 25
19 24 Guanyu Zhou 1:32.048 +1.674 28
20 4 Lando Norris 1:32.608 +2.234 25
Classified by best lap · source OpenF1 (2023+)
PosPiloteMeilleur tourÉcartTours
1 55 Carlos Sainz 1:30.824 18
2 14 Fernando Alonso 1:30.965 +0.141 18
3 1 Max Verstappen 1:31.062 +0.238 16
4 16 Charles Leclerc 1:31.094 +0.270 17
5 4 Lando Norris 1:31.118 +0.294 12
6 63 George Russell 1:31.190 +0.366 12
7 81 Oscar Piastri 1:31.210 +0.386 13
8 11 Sergio Pérez 1:31.248 +0.424 17
9 27 Nico Hülkenberg 1:31.278 +0.454 13
10 18 Lance Stroll 1:31.396 +0.572 17
11 3 Daniel Ricciardo 1:31.449 +0.625 13
12 44 Lewis Hamilton 1:31.452 +0.628 20
13 22 Yuki Tsunoda 1:31.631 +0.807 14
14 20 Kevin Magnussen 1:31.671 +0.847 20
15 23 Alexander Albon 1:31.965 +1.141 17
16 24 Guanyu Zhou 1:32.000 +1.176 17
17 77 Valtteri Bottas 1:32.096 +1.272 16
18 31 Esteban Ocon 1:32.124 +1.300 11
19 2 Logan Sargeant 1:32.125 +1.301 16
20 10 Pierre Gasly 1:32.382 +1.558 14
Classified by best lap · source OpenF1 (2023+)
#PiloteTemps au tourTour
1 1 Max Verstappen 1:32.608 L39
2 16 Charles Leclerc 1:34.090 L36
3 1 Max Verstappen 1:34.151 L43
4 1 Max Verstappen 1:34.193 L46
5 14 Fernando Alonso 1:34.199 L48
6 1 Max Verstappen 1:34.239 L47
7 1 Max Verstappen 1:34.249 L45
8 1 Max Verstappen 1:34.340 L51
9 1 Max Verstappen 1:34.350 L48
10 11 Sergio Pérez 1:34.364 L40
Top 10 la plus rapide race tours — #1 is the la plus rapide lap of la course(FL).
Arrêts aux stands · comparaison
25s 30s 35s 40s 45s 50s 55s 60s 65s 70s 75s médiane 24.9s Carlos Sainz · L35 · 23.866s Charles Leclerc · L11 · 24.069s Lewis Hamilton · L33 · 24.094s Charles Leclerc · L34 · 24.136s Lando Norris · L13 · 24.205s Max Verstappen · L37 · 24.209s Yuki Tsunoda · L34 · 24.324s Nico Hülkenberg · L41 · 24.387s Lance Stroll · L9 · 24.418s Kevin Magnussen · L32 · 24.446s Carlos Sainz · L14 · 24.474s Sergio Pérez · L12 · 24.516s Lance Stroll · L27 · 24.545s Sergio Pérez · L36 · 24.563s Alexander Albon · L36 · 24.610s Alexander Albon · L15 · 24.681s Lando Norris · L33 · 24.705s Yuki Tsunoda · L14 · 24.724s Nico Hülkenberg · L20 · 24.768s George Russell · L11 · 24.778s Fernando Alonso · L15 · 24.786s Oscar Piastri · L34 · 24.852s Daniel Ricciardo · L35 · 24.856s George Russell · L31 · 24.866s Esteban Ocon · L10 · 24.877s Daniel Ricciardo · L13 · 24.988s Max Verstappen · L17 · 25.064s Logan Sargeant · L28 · 25.070s Lewis Hamilton · L12 · 25.087s Guanyu Zhou · L28 · 25.094s Fernando Alonso · L41 · 25.109s Esteban Ocon · L30 · 25.145s Guanyu Zhou · L9 · 25.208s Pierre Gasly · L43 · 25.240s Logan Sargeant · L40 · 25.346s Oscar Piastri · L12 · 25.450s Kevin Magnussen · L11 · 25.951s Valtteri Bottas · L12 · 26.420s Pierre Gasly · L31 · 26.462s Pierre Gasly · L12 · 29.980s Logan Sargeant · L10 · 35.729s Nico Hülkenberg · L1 · 36.604s Valtteri Bottas · L30 · 74.773s
la plus rapide 23.866s Carlos Sainz la plus lente 74.773s Valtteri Bottas temps de passage dans la voie des stands — un point par arrêt
PiloteArrêtTourTempsPassage dans la voie des stands
27 Nico Hülkenberg 1 1 18:05:33 36.604s
24 Guanyu Zhou 1 9 18:18:39 25.208s
18 Lance Stroll 1 9 18:18:42 24.418s
2 Logan Sargeant 1 10 18:21:19 35.729s
31 Esteban Ocon 1 10 18:20:20 24.877s
16 Charles Leclerc 1 11 18:21:41 24.069s
20 Kevin Magnussen 1 11 18:21:55 25.951s
63 George Russell 1 11 18:21:38 24.778s
81 Oscar Piastri 1 12 18:23:24 25.450s
11 Sergio Pérez 1 12 18:23:16 24.516s
44 Lewis Hamilton 1 12 18:23:26 25.087s
77 Valtteri Bottas 1 12 18:23:42 26.420s
10 Pierre Gasly 1 12 18:23:38 29.980s
3 Daniel Ricciardo 1 13 18:25:17 24.988s
4 Lando Norris 1 13 18:25:00 24.205s
22 Yuki Tsunoda 1 14 18:26:47 24.724s
55 Carlos Sainz 1 14 18:26:32 24.474s
14 Fernando Alonso 1 15 18:28:24 24.786s
23 Alexander Albon 1 15 18:28:29 24.681s
1 Max Verstappen 1 17 18:31:12 25.064s
27 Nico Hülkenberg 2 20 18:37:08 24.768s
18 Lance Stroll 2 27 18:48:25 24.545s
24 Guanyu Zhou 2 28 18:49:59 25.094s
2 Logan Sargeant 2 28 18:51:33 25.070s
77 Valtteri Bottas 2 30 18:53:32 74.773s
31 Esteban Ocon 2 30 18:53:30 25.145s
63 George Russell 2 31 18:54:21 24.866s
10 Pierre Gasly 2 31 18:55:10 26.462s
20 Kevin Magnussen 2 32 18:56:37 24.446s
44 Lewis Hamilton 2 33 18:57:45 24.094s
4 Lando Norris 2 33 18:57:39 24.705s
16 Charles Leclerc 2 34 18:59:13 24.136s
22 Yuki Tsunoda 2 34 18:59:47 24.324s
81 Oscar Piastri 2 34 18:59:20 24.852s
55 Carlos Sainz 2 35 19:00:38 23.866s
3 Daniel Ricciardo 2 35 19:01:34 24.856s
11 Sergio Pérez 2 36 19:02:12 24.563s
23 Alexander Albon 2 36 19:03:09 24.610s
1 Max Verstappen 2 37 19:03:29 24.209s
2 Logan Sargeant 3 40 19:11:22 25.346s
14 Fernando Alonso 2 41 19:10:58 25.109s
27 Nico Hülkenberg 3 41 19:11:29 24.387s
10 Pierre Gasly 3 43 19:14:55 25.240s
arrêts
SG 10 20 30 40 50 L57
1
2
S16·+3
H20
S21
11
2
S11·+3
H24
S22
55
2
S13·+3
H21
H23
16
2
S10·+3
H23
H24
63
2
S10·+3
H20
H27
4
2
S12·+3
H20
H25
44
2
S11·+3
H21
H25
81
2
S11·+3
H22
H24
14
2
S14·+3
H26
H17
18
2
S8
H18
H31
24
2
S8
H19
H29
20
2
S10
H21
H25
3
2
S12·+3
H22
S22
22
2
S13
H20
H23
23
2
S14
H21
H21
27
3
H19
H21
S16
31
2
S9
H20
H27
10
3
S11
H19
H12
S14
77
2
S11
H18
H27
2
3
S9
H18
H12
S16
S Soft M Medium H Hard I Intermediate W Wet SC·VSC arrêt aux stands pénalité purgée aux stands
Course · largeur de barre = tours sur ce train, ·+N = monté usagé avec N tours au compteur · source OpenF1 (2023+)
Composés désignés pour ce Grand Prix
C1 Dur C2 Medium C3 Tendre
Pirelli désigne trois de ses composés slicks pour chaque épreuve ; plus le numéro C est élevé, plus le pneu est tendre. Document FIA ↗
Plus de places gagnées en piste
18
+18
P12→P10
24
+15
P17→P11
63
+14
P3→P5
14
+14
P6→P9
3
+13
P14→P13
16
+12
P2→P4
23
+12
P13→P15
27
+12
P10→P16
Plus de places perdues
Fernando Alonso −17 George Russell −16 Alexander Albon −16
Course · Somme des places gagnées en piste tour par tour — tour de départ et tours aux stands du pilote exclus. Données de tours de course depuis 1996.
PiloteTypeTourPurgéeInfligéeMotif
3 Daniel Ricciardo Black-and-white flag warning 57 TRACK LIMITS
Tour 57 TRACK LIMITS
Tour = tour où la pénalité a été infligée · Purgée = tour où elle a été purgée aux stands (vide : ajoutée au temps de course)
Time, drive-through and stop-go penalties come from race control messages (OpenF1, 2023+). Grille penalties never appear there — the stewards publish them as documents after the session — so they are worked back from the starting grid against the les qualifications classification, which gives places actually lost rather than the figure written in the decision.
PiloteTypeTourPurgéeInfligéeMotif
77 Valtteri Bottas Réprimande Crossed the Pit Exit line at 17:59:56 while the red light was on. (Réprimande (Driving). This is the driver’s 1st reprimand of the season.) Document FIA ↗
Crossed the Pit Exit line at 17:59:56 while the red light was on. (Réprimande (Driving). This is the driver’s 1st reprimand of the season.) Document FIA ↗
Tour = tour où la pénalité a été infligée · Purgée = tour où elle a été purgée aux stands (vide : ajoutée au temps de course)
Time, drive-through and stop-go penalties come from race control messages (OpenF1, 2023+). Grille penalties never appear there — the stewards publish them as documents after the session — so they are worked back from the starting grid against the les qualifications classification, which gives places actually lost rather than the figure written in the decision.
DocTitreObjetPublished(CET)
Event Notes - Pirelli Preview ↗ 2024-02-27 09:45
2024-02-27 09:45 CET
Course Director's Event Notes ↗ 2024-02-27 15:15
2024-02-27 15:15 CET
Event Notes - Circuit Map and Red Zone ↗ 2024-02-28 12:45
2024-02-28 12:45 CET
Car Display Procedure ↗ 2024-02-29 08:01
2024-02-29 08:01 CET
Self scrutineering ↗ 2024-02-29 10:53
2024-02-29 10:53 CET
Entry List ↗ 2024-02-29 10:57
2024-02-29 10:57 CET
P1 Classification (Updated) ↗ 2024-02-29 14:00
2024-02-29 14:00 CET
Summons - Car 77 - Red Light at Pit Exit ↗ 77 Valtteri Bottas 2024-02-29 16:24
77 Valtteri Bottas 2024-02-29 16:24 CET
P2 Classification ↗ 2024-02-29 17:29
2024-02-29 17:29 CET
Infringement - Car 77 - Red Light at Pit Exit ↗ 77 Valtteri Bottas 2024-02-29 17:54
77 Valtteri Bottas 2024-02-29 17:54 CET
P1 and P2 scrutineering ↗ 2024-02-29 18:47
2024-02-29 18:47 CET
Course Director's Note - SC2-SC1 Time ↗ 2024-02-29 19:43
2024-02-29 19:43 CET
Course Director's Event Notes V2 ↗ 2024-03-01 08:55
2024-03-01 08:55 CET
Post-Qualifications Procedure ↗ 2024-03-01 10:21
2024-03-01 10:21 CET
Course Director's Note - SC2-SC1 Time (Corrected) ↗ 2024-03-01 13:42
2024-03-01 13:42 CET
New PU elements for this Competition ↗ 2024-03-01 13:48
2024-03-01 13:48 CET
P3 Classification ↗ 2024-03-01 14:53
2024-03-01 14:53 CET
Provisional Qualifications Classification ↗ 2024-03-01 18:21
2024-03-01 18:21 CET
Qualifications Deleted Tour Times ↗ 2024-03-01 18:28
2024-03-01 18:28 CET
Qualifications SC2-SC1 Times ↗ 2024-03-01 18:30
2024-03-01 18:30 CET
P3 and Qualifications scrutineering ↗ 2024-03-01 20:43
2024-03-01 20:43 CET
Final Qualifications Classification ↗ 2024-03-01 20:46
2024-03-01 20:46 CET
Provisional Starting Grille ↗ 2024-03-01 20:56
2024-03-01 20:56 CET
Post-Course Procedure ↗ 2024-03-02 13:17
2024-03-02 13:17 CET
Pre-Course Procedure ↗ 2024-03-02 13:17
2024-03-02 13:17 CET
Parts and parameters been replaced and or changed during Parc Fermé ↗ 2024-03-02 14:04
2024-03-02 14:04 CET
Final Starting Grille ↗ 2024-03-02 14:05
2024-03-02 14:05 CET
Provisional Course Classification ↗ 2024-03-02 17:55
2024-03-02 17:55 CET
Course Deleted Tour Times ↗ 2024-03-02 17:55
2024-03-02 17:55 CET
Course scrutineering ↗ 2024-03-02 20:14
2024-03-02 20:14 CET
Final Course Classification ↗ 2024-03-02 20:17
2024-03-02 20:17 CET
Championnat Points ↗ 2024-03-02 20:20
2024-03-02 20:20 CET
FIA official decisions and documents (fia.com) · PDF original PDF links
Record Basis · Calculation basis
Course order is the final classification(post-race penalties applied) · les qualifications session data 2003+ · lap times 1996+ · pit stops 2012+ (pit-lane transit, not stationary time) · Abandon = Finished(Finished·+N Tours) non-Finished statuses
Sources des données: Jolpica-F1 (Ergast compatible API) · weather·Direction de course OpenF1 (2023+) · Last fetched: 2026-09-05 22:20